Dades meteomassalio
Diari Summary for Maig 20, 2017 Units:  Metric    English   Both
« Previous Day
Next Day »
Diari Semanal Mensual Anual Personalitzat
  Maxima: Minima: Mijana:
Temperatura: 25.4 °C 6.7 °C 16.5 °C
Rosada: 8.6 °C 4.8 °C 6.9 °C
Humitat: 89 % 30 % 58 %
Velocitat del vent: 27.8 km/h 0.0 km/h 4.1 km/h
Racha vent: 27.8 km/h - -
Vent:- - WSW
Pressio: 1024.9 hPa 1021.2 hPa -
Pluja: 0.0 mm    
Historical Graphs
 
 
Tabular Data for Maig 20, 2017
Time Temperature Dew Point Pressure Wind Wind Speed Wind Gust Humidity Rainfall Rate (Hourly) solar Conditions
00:03 12.0 °C 7.3 °C 1022.2 hPa Calm     73 % 0.0 mm 0.0 W/m2 CLR
00:08 12.1 °C 7.2 °C 1022.6 hPa Calm     72 % 0.0 mm 0.0 W/m2 CLR
00:13 12.0 °C 7.3 °C 1022.6 hPa Calm     73 % 0.0 mm 0.0 W/m2 CLR
00:18 11.8 °C 7.2 °C 1022.6 hPa Calm     73 % 0.0 mm 0.0 W/m2 CLR
00:23 11.6 °C 7.1 °C 1022.6 hPa Calm     74 % 0.0 mm 0.0 W/m2 CLR
00:28 11.4 °C 7.2 °C 1022.6 hPa Calm     75 % 0.0 mm 0.0 W/m2 CLR
00:33 11.3 °C 7.2 °C 1022.6 hPa Calm     76 % 0.0 mm 0.0 W/m2 CLR
00:43 11.1 °C 7.2 °C 1022.6 hPa Calm     77 % 0.0 mm 0.0 W/m2 CLR
00:48 11.1 °C 7.2 °C 1022.9 hPa Calm     77 % 0.0 mm 0.0 W/m2 CLR
00:53 11.0 °C 7.1 °C 1022.9 hPa Calm     77 % 0.0 mm 0.0 W/m2 CLR
00:58 10.9 °C 7.0 °C 1022.6 hPa Calm     77 % 0.0 mm 0.0 W/m2 CLR
01:03 10.8 °C 6.9 °C 1022.9 hPa Calm     77 % 0.0 mm 0.0 W/m2 CLR
01:08 10.8 °C 7.2 °C 1022.9 hPa Calm     78 % 0.0 mm 0.0 W/m2 CLR
01:13 10.8 °C 7.1 °C 1022.9 hPa Calm     78 % 0.0 mm 0.0 W/m2 CLR
01:18 10.7 °C 7.0 °C 1022.9 hPa Calm     78 % 0.0 mm 0.0 W/m2 CLR
01:23 10.6 °C 6.9 °C 1022.9 hPa Calm     78 % 0.0 mm 0.0 W/m2 CLR
01:28 10.6 °C 6.9 °C 1022.9 hPa Calm     78 % 0.0 mm 0.0 W/m2 CLR
01:34 10.6 °C 6.9 °C 1022.9 hPa Calm     78 % 0.0 mm 0.0 W/m2 CLR
01:39 10.4 °C 6.7 °C 1022.9 hPa Calm     78 % 0.0 mm 0.0 W/m2 CLR
01:44 10.2 °C 6.7 °C 1022.9 hPa Calm     79 % 0.0 mm 0.0 W/m2 CLR
01:49 10.1 °C 6.8 °C 1022.9 hPa Calm     80 % 0.0 mm 0.0 W/m2 CLR
01:54 9.9 °C 6.7 °C 1022.9 hPa Calm     80 % 0.0 mm 0.0 W/m2 CLR
01:59 10.0 °C 6.7 °C 1022.9 hPa Calm     80 % 0.0 mm 0.0 W/m2 CLR
02:04 10.1 °C 6.8 °C 1022.9 hPa Calm     80 % 0.0 mm 0.0 W/m2 CLR
02:09 10.0 °C 6.7 °C 1022.9 hPa Calm     80 % 0.0 mm 0.0 W/m2 CLR
02:14 9.9 °C 6.8 °C 1022.9 hPa Calm     81 % 0.0 mm 0.0 W/m2 CLR
02:19 9.8 °C 6.7 °C 1022.9 hPa Calm     81 % 0.0 mm 0.0 W/m2 CLR
02:24 9.8 °C 6.7 °C 1022.9 hPa Calm     81 % 0.0 mm 0.0 W/m2 CLR
02:29 9.7 °C 6.6 °C 1022.9 hPa Calm     81 % 0.0 mm 0.0 W/m2 CLR
02:34 9.6 °C 6.6 °C 1022.9 hPa Calm     82 % 0.0 mm 0.0 W/m2 CLR
02:39 9.4 °C 6.5 °C 1022.9 hPa Calm     82 % 0.0 mm 0.0 W/m2 CLR
02:44 9.4 °C 6.4 °C 1022.9 hPa Calm     82 % 0.0 mm 0.0 W/m2 CLR
02:49 9.4 °C 6.3 °C 1022.9 hPa Calm     81 % 0.0 mm 0.0 W/m2 CLR
02:54 9.3 °C 6.4 °C 1022.9 hPa Calm     82 % 0.0 mm 0.0 W/m2 CLR
02:59 9.3 °C 6.2 °C 1023.2 hPa Calm     81 % 0.0 mm 0.0 W/m2 CLR
03:04 9.3 °C 6.2 °C 1023.2 hPa Calm     81 % 0.0 mm 0.0 W/m2 CLR
03:09 9.2 °C 6.3 °C 1023.2 hPa Calm     82 % 0.0 mm 0.0 W/m2 CLR
03:14 9.2 °C 6.3 °C 1023.2 hPa Calm     82 % 0.0 mm 0.0 W/m2 CLR
03:19 9.2 °C 6.3 °C 1023.2 hPa Calm     82 % 0.0 mm 0.0 W/m2 CLR
03:24 9.1 °C 5.9 °C 1023.2 hPa Calm     81 % 0.0 mm 0.0 W/m2 CLR
03:29 9.0 °C 6.1 °C 1023.2 hPa Calm     82 % 0.0 mm 0.0 W/m2 CLR
03:34 8.9 °C 6.1 °C 1023.2 hPa Calm     82 % 0.0 mm 0.0 W/m2 CLR
03:39 9.1 °C 6.2 °C 1023.2 hPa Calm     82 % 0.0 mm 0.0 W/m2 CLR
03:44 9.2 °C 6.1 °C 1023.2 hPa Calm     81 % 0.0 mm 0.0 W/m2 CLR
03:49 9.2 °C 6.1 °C 1023.2 hPa Calm     81 % 0.0 mm 0.0 W/m2 CLR
03:54 9.1 °C 6.0 °C 1023.2 hPa Calm     81 % 0.0 mm 0.0 W/m2 CLR
04:04 8.9 °C 6.0 °C 1023.2 hPa Calm     82 % 0.0 mm 0.0 W/m2 CLR
04:09 8.8 °C 6.1 °C 1023.2 hPa Calm     83 % 0.0 mm 0.0 W/m2 CLR
04:15 8.6 °C 5.9 °C 1023.2 hPa Calm     83 % 0.0 mm 0.0 W/m2 CLR
04:20 8.4 °C 5.9 °C 1023.2 hPa Calm     84 % 0.0 mm 0.0 W/m2 CLR
04:25 8.4 °C 5.8 °C 1023.2 hPa Calm     84 % 0.0 mm 0.0 W/m2 CLR
04:30 8.3 °C 5.9 °C 1023.6 hPa Calm     85 % 0.0 mm 0.0 W/m2 CLR
04:35 8.2 °C 5.8 °C 1023.6 hPa Calm     85 % 0.0 mm 0.0 W/m2 CLR
04:40 8.1 °C 5.7 °C 1023.6 hPa Calm     85 % 0.0 mm 0.0 W/m2 CLR
04:45 8.1 °C 5.7 °C 1023.6 hPa Calm     85 % 0.0 mm 0.0 W/m2 CLR
04:50 7.9 °C 5.6 °C 1023.6 hPa Calm     85 % 0.0 mm 0.0 W/m2 CLR
04:55 7.9 °C 5.7 °C 1023.6 hPa Calm     86 % 0.0 mm 0.0 W/m2 CLR
05:00 7.8 °C 5.6 °C 1023.6 hPa Calm     86 % 0.0 mm 0.0 W/m2 CLR
05:05 7.7 °C 5.5 °C 1023.6 hPa Calm     86 % 0.0 mm 0.0 W/m2 CLR
05:10 7.6 °C 5.4 °C 1023.6 hPa Calm     86 % 0.0 mm 0.0 W/m2 CLR
05:15 7.5 °C 5.3 °C 1023.6 hPa Calm     86 % 0.0 mm 0.0 W/m2 CLR
05:20 7.4 °C 5.4 °C 1023.9 hPa Calm     87 % 0.0 mm 0.0 W/m2 CLR
05:25 7.4 °C 5.4 °C 1023.9 hPa Calm     87 % 0.0 mm 0.0 W/m2 CLR
05:30 7.4 °C 5.4 °C 1023.9 hPa Calm     87 % 0.0 mm 0.0 W/m2 CLR
05:35 7.3 °C 5.3 °C 1023.9 hPa Calm     87 % 0.0 mm 0.0 W/m2 CLR
05:40 7.3 °C 5.3 °C 1023.9 hPa Calm     87 % 0.0 mm 0.0 W/m2 CLR
05:45 7.3 °C 5.3 °C 1023.9 hPa Calm     87 % 0.0 mm 0.0 W/m2 CLR
05:50 7.3 °C 5.3 °C 1023.9 hPa Calm     87 % 0.0 mm 0.0 W/m2 CLR
05:55 7.2 °C 5.2 °C 1023.9 hPa Calm     87 % 0.0 mm 0.0 W/m2 CLR
06:00 7.1 °C 5.1 °C 1023.9 hPa Calm     87 % 0.0 mm 0.0 W/m2 CLR
06:05 7.0 °C 5.2 °C 1024.3 hPa Calm     88 % 0.0 mm 0.0 W/m2 CLR
06:10 7.1 °C 5.2 °C 1024.3 hPa Calm     88 % 0.0 mm 0.0 W/m2 CLR
06:15 7.1 °C 5.2 °C 1024.3 hPa Calm     88 % 0.0 mm 0.0 W/m2 CLR
06:20 7.1 °C 5.2 °C 1024.3 hPa Calm     88 % 0.0 mm 0.0 W/m2 CLR
06:25 7.1 °C 5.3 °C 1024.3 hPa Calm     88 % 0.0 mm 0.0 W/m2 CLR
06:30 7.0 °C 5.2 °C 1024.3 hPa Calm     88 % 0.0 mm 0.0 W/m2 OVC
06:35 6.9 °C 5.1 °C 1024.3 hPa Calm     88 % 0.0 mm 0.0 W/m2 OVC
06:40 6.8 °C 5.0 °C 1024.3 hPa Calm     88 % 0.0 mm 5.0 W/m2 OVC
06:45 6.8 °C 4.9 °C 1024.3 hPa Calm     88 % 0.0 mm 7.0 W/m2 BKN
06:50 6.7 °C 4.8 °C 1024.6 hPa Calm     88 % 0.0 mm 11.0 W/m2 BKN
06:55 6.7 °C 4.8 °C 1024.6 hPa Calm     88 % 0.0 mm 12.0 W/m2 BKN
07:00 6.7 °C 4.8 °C 1024.6 hPa Calm     88 % 0.0 mm 14.0 W/m2 BKN
07:05 6.7 °C 4.8 °C 1024.6 hPa Calm     88 % 0.0 mm 18.0 W/m2 BKN
07:10 6.7 °C 5.1 °C 1024.6 hPa Calm     89 % 0.0 mm 25.0 W/m2 BKN
07:15 6.8 °C 5.2 °C 1024.6 hPa Calm     89 % 0.0 mm 33.0 W/m2 BKN
07:20 7.0 °C 5.3 °C 1024.6 hPa Calm     89 % 0.0 mm 47.0 W/m2 SCT
07:25 7.2 °C 5.6 °C 1024.6 hPa Calm     89 % 0.0 mm 60.0 W/m2 SCT
07:30 7.4 °C 5.6 °C 1024.6 hPa Calm     88 % 0.0 mm 74.0 W/m2 FEW
07:35 7.6 °C 5.7 °C 1024.6 hPa Calm     88 % 0.0 mm 86.0 W/m2 FEW
07:40 7.8 °C 5.8 °C 1024.6 hPa Calm     87 % 0.0 mm 100.0 W/m2 CLR
07:45 8.2 °C 6.1 °C 1024.6 hPa Calm     87 % 0.0 mm 114.0 W/m2 CLR
07:50 8.6 °C 6.3 °C 1024.6 hPa Calm     86 % 0.0 mm 128.0 W/m2 CLR
07:55 8.9 °C 6.6 °C 1024.6 hPa Calm     85 % 0.0 mm 148.0 W/m2 CLR
08:00 9.4 °C 6.8 °C 1024.9 hPa Calm     84 % 0.0 mm 163.0 W/m2 CLR
08:05 9.8 °C 6.9 °C 1024.9 hPa Calm     82 % 0.0 mm 181.0 W/m2 CLR
08:10 10.3 °C 7.2 °C 1024.9 hPa Calm     81 % 0.0 mm 197.0 W/m2 CLR
08:15 10.8 °C 7.5 °C 1024.9 hPa Calm     80 % 0.0 mm 216.0 W/m2 CLR
08:20 11.3 °C 7.8 °C 1024.9 hPa Calm     79 % 0.0 mm 223.0 W/m2 CLR
08:25 11.7 °C 7.8 °C 1024.9 hPa Calm     77 % 0.0 mm 248.0 W/m2 CLR
08:30 12.3 °C 7.9 °C 1024.9 hPa Calm     75 % 0.0 mm 262.0 W/m2 CLR
08:35 12.7 °C 8.0 °C 1024.9 hPa West 4.8 km/h 4.8 km/h 73 % 0.0 mm 281.0 W/m2 CLR
08:40 13.1 °C 7.3 °C 1024.9 hPa West 9.3 km/h 9.3 km/h 68 % 0.0 mm 295.0 W/m2 CLR
08:45 13.4 °C 7.4 °C 1024.9 hPa WNW 6.4 km/h 6.4 km/h 67 % 0.0 mm 311.0 W/m2 CLR
08:50 13.5 °C 7.1 °C 1024.9 hPa West 9.3 km/h 9.3 km/h 65 % 0.0 mm 327.0 W/m2 CLR
08:55 13.7 °C 7.2 °C 1024.9 hPa WNW 8.0 km/h 8.0 km/h 65 % 0.0 mm 345.0 W/m2 CLR
09:00 13.9 °C 7.2 °C 1024.9 hPa WSW 9.7 km/h 9.7 km/h 64 % 0.0 mm 360.0 W/m2 CLR
09:10 14.1 °C 6.9 °C 1024.9 hPa West 14.8 km/h 14.8 km/h 62 % 0.0 mm 390.0 W/m2 CLR
09:15 14.2 °C 7.1 °C 1024.9 hPa WNW 14.5 km/h 14.5 km/h 62 % 0.0 mm 406.0 W/m2 CLR
09:20 14.2 °C 7.1 °C 1024.9 hPa WSW 13.0 km/h 13.0 km/h 62 % 0.0 mm 424.0 W/m2 CLR
09:25 14.4 °C 7.2 °C 1024.9 hPa WNW 3.7 km/h   62 % 0.0 mm 439.0 W/m2 CLR
09:30 14.8 °C 7.3 °C 1024.9 hPa WSW 11.1 km/h 11.1 km/h 61 % 0.0 mm 455.0 W/m2 CLR
09:35 14.9 °C 7.2 °C 1024.9 hPa SSW 7.4 km/h 7.4 km/h 60 % 0.0 mm 469.0 W/m2 CLR
09:41 15.1 °C 7.3 °C 1024.9 hPa SW 9.3 km/h 9.3 km/h 60 % 0.0 mm 487.0 W/m2 CLR
09:46 15.1 °C 7.2 °C 1024.6 hPa WSW 5.6 km/h 5.6 km/h 59 % 0.0 mm 501.0 W/m2 CLR
09:51 15.2 °C 7.3 °C 1024.9 hPa WSW 5.6 km/h 5.6 km/h 59 % 0.0 mm 517.0 W/m2 CLR
09:56 15.4 °C 7.2 °C 1024.6 hPa WSW 5.6 km/h 5.6 km/h 58 % 0.0 mm 531.0 W/m2 CLR
10:01 15.6 °C 7.1 °C 1024.9 hPa West 5.6 km/h   57 % 0.0 mm 545.0 W/m2 CLR
10:06 15.9 °C 7.4 °C 1024.6 hPa West 9.7 km/h 9.7 km/h 57 % 0.0 mm 563.0 W/m2 CLR
10:11 15.9 °C 7.1 °C 1024.6 hPa SW 5.6 km/h 5.6 km/h 56 % 0.0 mm 577.0 W/m2 CLR
10:16 16.2 °C 7.7 °C 1024.6 hPa WSW 5.6 km/h 5.6 km/h 57 % 0.0 mm 591.0 W/m2 CLR
10:21 16.5 °C 7.4 °C 1024.6 hPa WSW 6.4 km/h 6.4 km/h 55 % 0.0 mm 591.0 W/m2 CLR
10:26 16.6 °C 7.2 °C 1024.6 hPa Calm     54 % 0.0 mm 621.0 W/m2 CLR
10:31 16.7 °C 7.1 °C 1024.9 hPa West 9.3 km/h 9.3 km/h 53 % 0.0 mm 633.0 W/m2 CLR
10:36 16.8 °C 7.7 °C 1024.6 hPa West 1.9 km/h   55 % 0.0 mm 613.0 W/m2 CLR
10:41 17.1 °C 7.4 °C 1024.6 hPa WNW 6.4 km/h 6.4 km/h 53 % 0.0 mm 647.0 W/m2 CLR
10:46 17.3 °C 7.7 °C 1024.6 hPa NNW 8.0 km/h 8.0 km/h 53 % 0.0 mm 679.0 W/m2 CLR
10:51 17.7 °C 7.7 °C 1024.6 hPa West 18.5 km/h 18.5 km/h 52 % 0.0 mm 684.0 W/m2 CLR
10:56 17.5 °C 7.2 °C 1024.6 hPa West 5.6 km/h 5.6 km/h 51 % 0.0 mm 698.0 W/m2 CLR
11:01 17.6 °C 7.3 °C 1024.6 hPa NW 9.7 km/h 9.7 km/h 51 % 0.0 mm 715.0 W/m2 CLR
11:06 17.7 °C 7.7 °C 1024.6 hPa WNW 9.3 km/h 9.3 km/h 52 % 0.0 mm 728.0 W/m2 CLR
11:11 17.8 °C 7.3 °C 1024.6 hPa WSW 11.1 km/h 11.1 km/h 50 % 0.0 mm 733.0 W/m2 CLR
11:16 17.9 °C 7.6 °C 1024.6 hPa NNW 9.3 km/h 9.3 km/h 51 % 0.0 mm 729.0 W/m2 CLR
11:21 18.1 °C 7.4 °C 1024.6 hPa North 6.4 km/h 6.4 km/h 50 % 0.0 mm 780.0 W/m2 CLR
11:26 18.3 °C 8.0 °C 1024.6 hPa WNW 9.3 km/h 9.3 km/h 51 % 0.0 mm 640.0 W/m2 CLR
11:31 18.5 °C 7.6 °C 1024.6 hPa WNW 5.6 km/h 5.6 km/h 49 % 0.0 mm 814.0 W/m2 CLR
11:36 18.4 °C 7.5 °C 1024.6 hPa WSW 11.3 km/h 11.3 km/h 49 % 0.0 mm 782.0 W/m2 CLR
11:41 18.5 °C 7.3 °C 1024.6 hPa Calm     48 % 0.0 mm 814.0 W/m2 CLR
11:46 18.7 °C 7.7 °C 1024.6 hPa WNW 13.0 km/h 13.0 km/h 49 % 0.0 mm 814.0 W/m2 CLR
11:51 18.9 °C 7.9 °C 1024.6 hPa WNW 9.7 km/h 9.7 km/h 49 % 0.0 mm 840.0 W/m2 CLR
11:56 19.1 °C 7.8 °C 1024.6 hPa WNW 5.6 km/h 5.6 km/h 48 % 0.0 mm 671.0 W/m2 CLR
12:01 19.3 °C 8.0 °C 1024.6 hPa NW 9.3 km/h 9.3 km/h 48 % 0.0 mm 874.0 W/m2 CLR
12:06 19.3 °C 7.7 °C 1024.6 hPa WNW 9.3 km/h 9.3 km/h 47 % 0.0 mm 763.0 W/m2 CLR
12:11 19.2 °C 7.6 °C 1024.6 hPa NW 13.0 km/h 13.0 km/h 47 % 0.0 mm 657.0 W/m2 CLR
12:16 19.1 °C 7.5 °C 1024.6 hPa SW 5.6 km/h 5.6 km/h 47 % 0.0 mm 802.0 W/m2 CLR
12:21 19.3 °C 8.1 °C 1024.3 hPa WNW 9.3 km/h 9.3 km/h 48 % 0.0 mm 896.0 W/m2 CLR
12:26 19.6 °C 6.9 °C 1024.6 hPa NNW 7.4 km/h 7.4 km/h 44 % 0.0 mm 863.0 W/m2 CLR
12:31 19.6 °C 7.3 °C 1024.3 hPa NW 9.3 km/h 9.3 km/h 45 % 0.0 mm 837.0 W/m2 CLR
12:36 19.7 °C 7.8 °C 1024.3 hPa NW 13.0 km/h 13.0 km/h 46 % 0.0 mm 898.0 W/m2 CLR
12:41 20.0 °C 8.0 °C 1024.3 hPa NW 11.1 km/h 11.1 km/h 46 % 0.0 mm 921.0 W/m2 CLR
12:46 19.9 °C 7.3 °C 1024.3 hPa Calm     44 % 0.0 mm 930.0 W/m2 CLR
12:51 20.0 °C 7.4 °C 1024.3 hPa SW 1.9 km/h 1.9 km/h 44 % 0.0 mm 896.0 W/m2 CLR
12:56 20.3 °C 7.3 °C 1024.3 hPa NW 5.6 km/h 5.6 km/h 43 % 0.0 mm 919.0 W/m2 CLR
13:01 20.5 °C 7.8 °C 1024.3 hPa NNW 13.0 km/h 13.0 km/h 44 % 0.0 mm 932.0 W/m2 CLR
13:06 20.7 °C 7.3 °C 1023.9 hPa North 9.7 km/h 9.7 km/h 42 % 0.0 mm 939.0 W/m2 CLR
13:11 20.6 °C 6.9 °C 1023.9 hPa NNW 5.6 km/h 5.6 km/h 41 % 0.0 mm 942.0 W/m2 CLR
13:16 20.7 °C 7.6 °C 1023.9 hPa West 9.3 km/h 9.3 km/h 43 % 0.0 mm 904.0 W/m2 CLR
13:21 20.7 °C 7.6 °C 1023.9 hPa NNW 7.4 km/h 7.4 km/h 43 % 0.0 mm 932.0 W/m2 CLR
13:26 21.0 °C 7.6 °C 1023.9 hPa Calm     42 % 0.0 mm 939.0 W/m2 CLR
13:31 21.3 °C 7.6 °C 1023.9 hPa Calm     41 % 0.0 mm 912.0 W/m2 CLR
13:36 21.6 °C 8.2 °C 1023.6 hPa NNW 13.0 km/h 13.0 km/h 42 % 0.0 mm 967.0 W/m2 CLR
13:41 21.7 °C 7.5 °C 1023.6 hPa NNW 16.7 km/h 16.7 km/h 40 % 0.0 mm 907.0 W/m2 CLR
13:46 21.4 °C 7.3 °C 1023.6 hPa NW 9.3 km/h 9.3 km/h 40 % 0.0 mm 904.0 W/m2 CLR
13:51 21.4 °C 7.3 °C 1023.6 hPa ENE 5.6 km/h 5.6 km/h 40 % 0.0 mm 967.0 W/m2 CLR
13:56 21.5 °C 7.7 °C 1023.6 hPa ENE 1.9 km/h 1.9 km/h 41 % 0.0 mm 951.0 W/m2 CLR
14:01 21.8 °C 7.2 °C 1023.6 hPa NNE 5.6 km/h 5.6 km/h 39 % 0.0 mm 942.0 W/m2 CLR
14:06 22.0 °C 7.8 °C 1023.6 hPa NNW 13.0 km/h 13.0 km/h 40 % 0.0 mm 951.0 W/m2 CLR
14:11 21.8 °C 7.3 °C 1023.2 hPa North 3.2 km/h 3.2 km/h 39 % 0.0 mm 949.0 W/m2 CLR
14:16 21.9 °C 7.7 °C 1023.2 hPa NNE 18.5 km/h 18.5 km/h 40 % 0.0 mm 949.0 W/m2 CLR
14:21 21.9 °C 7.7 °C 1023.2 hPa NE 7.4 km/h 7.4 km/h 40 % 0.0 mm 953.0 W/m2 CLR
14:26 22.0 °C 7.0 °C 1023.2 hPa North 11.1 km/h 11.1 km/h 38 % 0.0 mm 940.0 W/m2 CLR
14:31 22.1 °C 7.4 °C 1023.2 hPa NNW 27.8 km/h 27.8 km/h 39 % 0.0 mm 932.0 W/m2 CLR
14:36 22.2 °C 7.6 °C 1023.2 hPa NNW 12.9 km/h 12.9 km/h 39 % 0.0 mm 939.0 W/m2 CLR
14:41 22.3 °C 6.9 °C 1023.2 hPa NNE 8.0 km/h 8.0 km/h 37 % 0.0 mm 939.0 W/m2 CLR
14:46 22.3 °C 7.3 °C 1023.2 hPa NE 5.6 km/h 5.6 km/h 38 % 0.0 mm 933.0 W/m2 CLR
14:51 22.3 °C 6.9 °C 1023.2 hPa Calm     37 % 0.0 mm 930.0 W/m2 CLR
14:56 22.8 °C 7.4 °C 1022.9 hPa NNE 8.0 km/h 8.0 km/h 37 % 0.0 mm 919.0 W/m2 CLR
15:01 22.8 °C 6.9 °C 1022.9 hPa North 18.5 km/h 18.5 km/h 36 % 0.0 mm 921.0 W/m2 CLR
15:06 23.1 °C 7.2 °C 1022.9 hPa WNW 13.0 km/h 13.0 km/h 36 % 0.0 mm 904.0 W/m2 CLR
15:11 23.1 °C 6.8 °C 1022.9 hPa North 9.7 km/h 9.7 km/h 35 % 0.0 mm 912.0 W/m2 CLR
15:16 23.2 °C 7.3 °C 1022.6 hPa NNE 14.8 km/h 14.8 km/h 36 % 0.0 mm 905.0 W/m2 CLR
15:21 23.4 °C 7.4 °C 1022.6 hPa North 24.1 km/h 24.1 km/h 36 % 0.0 mm 904.0 W/m2 CLR
15:26 23.0 °C 6.7 °C 1022.6 hPa North 18.5 km/h 18.5 km/h 35 % 0.0 mm 888.0 W/m2 CLR
15:31 22.8 °C 6.9 °C 1022.6 hPa NNW 3.7 km/h 3.7 km/h 36 % 0.0 mm 881.0 W/m2 CLR
15:36 22.9 °C 7.0 °C 1022.6 hPa NNE 1.9 km/h   36 % 0.0 mm 874.0 W/m2 CLR
15:41 23.3 °C 6.6 °C 1022.6 hPa ENE 11.1 km/h 11.1 km/h 34 % 0.0 mm 868.0 W/m2 CLR
15:47 23.2 °C 7.3 °C 1022.6 hPa NW 7.4 km/h 8.7 km/h 36 % 0.0 mm 858.0 W/m2 CLR
15:52 23.4 °C 7.5 °C 1022.6 hPa ENE 9.7 km/h 9.7 km/h 36 % 0.0 mm 851.0 W/m2 CLR
15:57 23.5 °C 7.2 °C 1022.6 hPa North 11.3 km/h 11.3 km/h 35 % 0.0 mm 847.0 W/m2 CLR
16:02 23.4 °C 7.1 °C 1022.6 hPa NW 9.7 km/h 9.7 km/h 35 % 0.0 mm 835.0 W/m2 CLR
16:07 23.4 °C 6.7 °C 1022.6 hPa NNW 16.7 km/h 16.7 km/h 34 % 0.0 mm 823.0 W/m2 CLR
16:12 23.4 °C 7.5 °C 1022.2 hPa WNW 5.6 km/h 5.6 km/h 36 % 0.0 mm 823.0 W/m2 CLR
16:17 23.7 °C 7.3 °C 1022.2 hPa WNW 9.3 km/h 9.3 km/h 35 % 0.0 mm 814.0 W/m2 CLR
16:22 23.8 °C 7.8 °C 1022.2 hPa North 13.0 km/h 13.0 km/h 36 % 0.0 mm 770.0 W/m2 CLR
16:27 23.9 °C 7.5 °C 1022.2 hPa NNW 16.7 km/h 16.7 km/h 35 % 0.0 mm 777.0 W/m2 CLR
16:32 23.8 °C 7.4 °C 1022.2 hPa North 11.3 km/h 11.3 km/h 35 % 0.0 mm 751.0 W/m2 CLR
16:37 24.1 °C 7.2 °C 1022.2 hPa North 5.6 km/h   34 % 0.0 mm 775.0 W/m2 CLR
16:42 24.1 °C 7.6 °C 1021.9 hPa NNW 5.6 km/h 5.6 km/h 35 % 0.0 mm 677.0 W/m2 CLR
16:47 23.9 °C 7.1 °C 1021.9 hPa NNW 18.5 km/h 18.5 km/h 34 % 0.0 mm 728.0 W/m2 CLR
16:52 23.8 °C 7.0 °C 1021.9 hPa North 18.5 km/h 18.5 km/h 34 % 0.0 mm 712.0 W/m2 CLR
16:57 23.8 °C 7.4 °C 1021.9 hPa North 16.7 km/h 16.7 km/h 35 % 0.0 mm 696.0 W/m2 CLR
17:02 23.8 °C 7.0 °C 1021.9 hPa Calm     34 % 0.0 mm 684.0 W/m2 CLR
17:07 23.9 °C 7.1 °C 1021.9 hPa NNW 18.5 km/h 18.5 km/h 34 % 0.0 mm 673.0 W/m2 CLR
17:12 23.9 °C 7.6 °C 1021.9 hPa NW 1.9 km/h   35 % 0.0 mm 643.0 W/m2 CLR
17:17 24.2 °C 7.3 °C 1021.9 hPa NE 16.7 km/h 16.7 km/h 34 % 0.0 mm 643.0 W/m2 CLR
17:22 24.2 °C 6.9 °C 1021.6 hPa Calm     33 % 0.0 mm 573.0 W/m2 CLR
17:27 24.3 °C 7.4 °C 1021.6 hPa Calm   1.6 km/h 34 % 0.0 mm 643.0 W/m2 CLR
17:32 24.4 °C 7.1 °C 1021.6 hPa NNW 5.6 km/h 5.6 km/h 33 % 0.0 mm 622.0 W/m2 CLR
17:37 24.7 °C 7.3 °C 1021.6 hPa NNW 14.8 km/h 14.8 km/h 33 % 0.0 mm 617.0 W/m2 CLR
17:42 24.6 °C 6.8 °C 1021.6 hPa NNE 22.2 km/h 22.2 km/h 32 % 0.0 mm 575.0 W/m2 CLR
17:47 24.5 °C 6.7 °C 1021.6 hPa North 16.7 km/h 16.7 km/h 32 % 0.0 mm 592.0 W/m2 CLR
17:52 24.2 °C 6.5 °C 1021.6 hPa NNE 14.8 km/h 14.8 km/h 32 % 0.0 mm 554.0 W/m2 CLR
17:57 24.2 °C 6.5 °C 1021.6 hPa North 5.6 km/h 5.6 km/h 32 % 0.0 mm 554.0 W/m2 CLR
18:02 24.4 °C 6.2 °C 1021.6 hPa North 3.7 km/h 3.7 km/h 31 % 0.0 mm 547.0 W/m2 CLR
18:07 24.6 °C 6.3 °C 1021.6 hPa NNW 9.3 km/h 9.3 km/h 31 % 0.0 mm 533.0 W/m2 CLR
18:12 24.6 °C 6.8 °C 1021.6 hPa Calm     32 % 0.0 mm 489.0 W/m2 CLR
18:17 24.9 °C 6.7 °C 1021.6 hPa NNW 5.6 km/h 5.6 km/h 31 % 0.0 mm 483.0 W/m2 CLR
18:22 24.8 °C 6.6 °C 1021.6 hPa Calm     31 % 0.0 mm 480.0 W/m2 CLR
18:27 24.7 °C 5.9 °C 1021.6 hPa North 22.2 km/h 22.2 km/h 30 % 0.0 mm 464.0 W/m2 CLR
18:32 24.6 °C 5.8 °C 1021.6 hPa WNW 18.5 km/h 18.5 km/h 30 % 0.0 mm 438.0 W/m2 CLR
18:37 24.5 °C 5.8 °C 1021.2 hPa North 5.6 km/h 5.6 km/h 30 % 0.0 mm 425.0 W/m2 CLR
18:42 24.6 °C 6.8 °C 1021.2 hPa NNE 3.7 km/h 3.7 km/h 32 % 0.0 mm 411.0 W/m2 CLR
18:47 24.9 °C 6.1 °C 1021.2 hPa North 5.6 km/h 5.6 km/h 30 % 0.0 mm 397.0 W/m2 CLR
18:52 24.9 °C 6.1 °C 1021.2 hPa WNW 13.0 km/h 13.0 km/h 30 % 0.0 mm 380.0 W/m2 CLR
18:57 24.8 °C 6.1 °C 1021.2 hPa North 7.4 km/h 7.4 km/h 30 % 0.0 mm 367.0 W/m2 CLR
19:02 24.8 °C 6.1 °C 1021.2 hPa Calm     30 % 0.0 mm 350.0 W/m2 CLR
19:07 24.9 °C 6.1 °C 1021.2 hPa North 9.3 km/h 9.3 km/h 30 % 0.0 mm 338.0 W/m2 CLR
19:12 24.9 °C 6.1 °C 1021.2 hPa Calm     30 % 0.0 mm 318.0 W/m2 CLR
19:17 24.8 °C 6.1 °C 1021.2 hPa NW 3.7 km/h   30 % 0.0 mm 306.0 W/m2 CLR
19:18 24.8 °C 6.1 °C 1021.2 hPa Calm     30 % 0.0 mm 301.0 W/m2 CLR
19:23 24.8 °C 6.6 °C 1021.2 hPa NNW 5.6 km/h 5.6 km/h 31 % 0.0 mm 283.0 W/m2 CLR
19:28 24.8 °C 6.0 °C 1021.2 hPa Calm     30 % 0.0 mm 262.0 W/m2 CLR
19:33 24.8 °C 6.6 °C 1021.2 hPa North 5.6 km/h 5.6 km/h 31 % 0.0 mm 244.0 W/m2 CLR
19:38 24.8 °C 6.5 °C 1021.2 hPa Calm     31 % 0.0 mm 227.0 W/m2 CLR
19:43 24.8 °C 6.0 °C 1021.2 hPa Calm     30 % 0.0 mm 188.0 W/m2 CLR
19:48 25.0 °C 6.2 °C 1021.2 hPa Calm     30 % 0.0 mm 190.0 W/m2 CLR
19:53 25.4 °C 6.6 °C 1021.2 hPa Calm     30 % 0.0 mm 158.0 W/m2 CLR
19:58 25.3 °C 6.5 °C 1021.2 hPa NNE 1.9 km/h   30 % 0.0 mm 153.0 W/m2 CLR
20:03 24.9 °C 6.1 °C 1021.6 hPa Calm     30 % 0.0 mm 113.0 W/m2 CLR
20:08 24.6 °C 6.3 °C 1021.6 hPa Calm     31 % 0.0 mm 121.0 W/m2 CLR
20:13 24.6 °C 6.8 °C 1021.6 hPa Calm     32 % 0.0 mm 97.0 W/m2 CLR
20:18 24.4 °C 6.7 °C 1021.6 hPa Calm     32 % 0.0 mm 97.0 W/m2 CLR
20:23 24.4 °C 6.6 °C 1021.6 hPa Calm     32 % 0.0 mm 79.0 W/m2 FEW
20:28 24.3 °C 6.9 °C 1021.6 hPa Calm     33 % 0.0 mm 51.0 W/m2 SCT
20:33 24.1 °C 6.3 °C 1021.6 hPa Calm     32 % 0.0 mm 37.0 W/m2 BKN
20:34 24.1 °C 6.8 °C 1021.6 hPa Calm     33 % 0.0 mm 37.0 W/m2 BKN
20:39 23.8 °C 7.0 °C 1021.9 hPa Calm     34 % 0.0 mm 40.0 W/m2 BKN
20:44 23.7 °C 6.9 °C 1021.9 hPa Calm     34 % 0.0 mm 28.0 W/m2 BKN
20:49 23.4 °C 6.6 °C 1021.9 hPa Calm     34 % 0.0 mm 19.0 W/m2 BKN
20:54 23.1 °C 6.8 °C 1021.9 hPa Calm     35 % 0.0 mm 16.0 W/m2 BKN
20:59 22.7 °C 6.8 °C 1021.9 hPa Calm     36 % 0.0 mm 11.0 W/m2 BKN
21:04 22.2 °C 6.8 °C 1021.9 hPa Calm     37 % 0.0 mm 9.0 W/m2 BKN
21:09 21.9 °C 6.6 °C 1021.9 hPa Calm     37 % 0.0 mm 5.0 W/m2 BKN
21:14 21.7 °C 6.4 °C 1021.9 hPa Calm     37 % 0.0 mm 0.0 W/m2 OVC
21:19 21.6 °C 6.7 °C 1021.9 hPa Calm     38 % 0.0 mm 0.0 W/m2 OVC
21:24 21.3 °C 7.2 °C 1021.9 hPa Calm     40 % 0.0 mm 0.0 W/m2 OVC
21:29 20.9 °C 7.2 °C 1021.9 hPa Calm     41 % 0.0 mm 0.0 W/m2 CLR
21:34 20.6 °C 7.2 °C 1021.9 hPa Calm     42 % 0.0 mm 0.0 W/m2 CLR
21:39 20.4 °C 7.4 °C 1021.9 hPa Calm     43 % 0.0 mm 0.0 W/m2 CLR
21:44 20.2 °C 8.2 °C 1021.9 hPa Calm     46 % 0.0 mm 0.0 W/m2 CLR
21:49 19.9 °C 8.2 °C 1021.9 hPa Calm     47 % 0.0 mm 0.0 W/m2 CLR
21:54 19.5 °C 8.5 °C 1022.2 hPa Calm     49 % 0.0 mm 0.0 W/m2 CLR
21:59 18.9 °C 8.6 °C 1022.2 hPa Calm     51 % 0.0 mm 0.0 W/m2 CLR
22:04 18.4 °C 8.3 °C 1022.2 hPa Calm     52 % 0.0 mm 0.0 W/m2 CLR
22:09 17.9 °C 8.2 °C 1022.2 hPa Calm     53 % 0.0 mm 0.0 W/m2 CLR
22:14 17.6 °C 8.1 °C 1022.6 hPa Calm     54 % 0.0 mm 0.0 W/m2 CLR
22:19 17.2 °C 8.1 °C 1022.6 hPa Calm     55 % 0.0 mm 0.0 W/m2 CLR
22:24 17.0 °C 8.2 °C 1022.6 hPa Calm     56 % 0.0 mm 0.0 W/m2 CLR
22:29 16.8 °C 8.2 °C 1022.6 hPa Calm     57 % 0.0 mm 0.0 W/m2 CLR
22:34 16.5 °C 8.2 °C 1022.6 hPa Calm     58 % 0.0 mm 0.0 W/m2 CLR
22:39 16.4 °C 8.1 °C 1022.6 hPa Calm     58 % 0.0 mm 0.0 W/m2 CLR
22:44 16.2 °C 8.4 °C 1022.6 hPa Calm     60 % 0.0 mm 0.0 W/m2 CLR
22:49 15.9 °C 8.1 °C 1022.6 hPa Calm     60 % 0.0 mm 0.0 W/m2 CLR
22:54 15.6 °C 8.3 °C 1022.6 hPa Calm     62 % 0.0 mm 0.0 W/m2 CLR
22:59 15.2 °C 8.2 °C 1022.6 hPa Calm     63 % 0.0 mm 0.0 W/m2 CLR
23:04 14.9 °C 8.1 °C 1022.6 hPa Calm     64 % 0.0 mm 0.0 W/m2 CLR
23:09 14.8 °C 8.1 °C 1022.6 hPa Calm     64 % 0.0 mm 0.0 W/m2 CLR
23:14 14.7 °C 8.2 °C 1022.9 hPa Calm     65 % 0.0 mm 0.0 W/m2 CLR
23:19 14.6 °C 8.1 °C 1022.9 hPa Calm     65 % 0.0 mm 0.0 W/m2 CLR
23:24 14.4 °C 7.9 °C 1022.9 hPa Calm     65 % 0.0 mm 0.0 W/m2 CLR
23:29 14.3 °C 8.0 °C 1022.9 hPa Calm     66 % 0.0 mm 0.0 W/m2 CLR
23:35 14.2 °C 8.1 °C 1022.9 hPa Calm     67 % 0.0 mm 0.0 W/m2 CLR
23:40 14.1 °C 8.0 °C 1022.9 hPa Calm     67 % 0.0 mm 0.0 W/m2 CLR
23:45 13.9 °C 7.7 °C 1022.9 hPa Calm     66 % 0.0 mm 0.0 W/m2 CLR
23:50 13.9 °C 7.7 °C 1022.9 hPa Calm     66 % 0.0 mm 0.0 W/m2 CLR
23:55 13.9 °C 7.8 °C 1022.9 hPa Calm     67 % 0.0 mm 0.0 W/m2 CLR
Lo Temps de Massalio
Compliments of Weather Underground - 1.25 mb